| time (UTC) | temp F | wind direction | speed MPH | gust MPH | rain 1hr in | rain 24hr in | rain mn in | humidity % | barometer mb |
| 20260510004537 | 77 | 300 | 0.0 | 2.0 | 0.00 | 0.00 | 0.00 | 38 | 1009.8 |
| 20260510003515 | 77 | 271 | 1.0 | 3.0 | 0.00 | 0.00 | 0.00 | 35 | 1009.8 |
| 20260510002533 | 78 | 257 | 2.0 | 4.0 | 0.00 | 0.00 | 0.00 | 35 | 1009.7 |
| 20260510001532 | 78 | 262 | 2.0 | 4.0 | 0.00 | 0.00 | 0.00 | 35 | 1009.8 |
| 20260510000550 | 78 | 254 | 2.0 | 5.0 | 0.00 | 0.00 | 0.00 | 34 | 1009.9 |
| 20260509235548 | 79 | 270 | 2.0 | 5.0 | 0.00 | 0.00 | 0.00 | 33 | 1009.8 |
| 20260509234546 | 79 | 265 | 2.0 | 5.0 | 0.00 | 0.00 | 0.00 | 34 | 1009.7 |
| 20260509233524 | 79 | 248 | 3.0 | 6.0 | 0.00 | 0.00 | 0.00 | 33 | 1009.8 |
| 20260509232522 | 79 | 262 | 3.0 | 6.0 | 0.00 | 0.01 | 0.00 | 33 | 1009.8 |
| 20260509231540 | 80 | 265 | 3.0 | 5.0 | 0.00 | 0.02 | 0.00 | 32 | 1009.8 |
| 20260509230519 | 80 | 267 | 3.0 | 5.0 | 0.00 | 0.02 | 0.00 | 33 | 1009.7 |
| 20260509225517 | 81 | 334 | 3.0 | 5.0 | 0.00 | 0.02 | 0.00 | 30 | 1009.7 |
| 20260509224535 | 82 | 345 | 2.0 | 3.0 | 0.00 | 0.02 | 0.00 | 28 | 1009.8 |
| 20260509223533 | 84 | 279 | 2.0 | 6.0 | 0.00 | 0.02 | 0.00 | 28 | 1009.7 |
| 20260509222531 | 84 | 281 | 2.0 | 4.0 | 0.00 | 0.02 | 0.00 | 30 | 1009.7 |
| 20260509221529 | 84 | 292 | 2.0 | 4.0 | 0.00 | 0.02 | 0.00 | 30 | 1009.8 |
| 20260509220527 | 83 | 248 | 3.0 | 6.0 | 0.00 | 0.02 | 0.00 | 32 | 1009.9 |
| 20260509215525 | 84 | 248 | 4.0 | 6.0 | 0.00 | 0.02 | 0.00 | 31 | 1009.7 |
| 20260509214524 | 83 | 13 | 2.0 | 5.0 | 0.00 | 0.02 | 0.00 | 30 | 1009.8 |
| 20260509213522 | 84 | 353 | 2.0 | 5.0 | 0.00 | 0.02 | 0.00 | 30 | 1010.0 |
| 20260509212520 | 85 | 308 | 2.0 | 4.0 | 0.00 | 0.02 | 0.00 | 30 | 1009.8 |
| 20260509211518 | 85 | 294 | 2.0 | 4.0 | 0.00 | 0.02 | 0.00 | 30 | 1009.8 |
| 20260509210536 | 84 | 44 | 3.0 | 8.0 | 0.00 | 0.02 | 0.00 | 30 | 1009.9 |
| 20260509205554 | 84 | 297 | 3.0 | 6.0 | 0.00 | 0.02 | 0.00 | 31 | 1010.1 |
| 20260509204532 | 85 | 357 | 3.0 | 9.0 | 0.00 | 0.02 | 0.00 | 30 | 1010.1 |
| 20260509203531 | 85 | 287 | 2.0 | 5.0 | 0.00 | 0.02 | 0.00 | 29 | 1010.0 |
| 20260509202529 | 84 | 254 | 2.0 | 5.0 | 0.00 | 0.02 | 0.00 | 30 | 1010.3 |
| 20260509201527 | 84 | 4 | 3.0 | 6.0 | 0.00 | 0.02 | 0.00 | 30 | 1010.5 |
| 20260509200525 | 83 | 2 | 3.0 | 6.0 | 0.00 | 0.02 | 0.00 | 30 | 1010.6 |
| 20260509195523 | 84 | 271 | 4.0 | 7.0 | 0.00 | 0.02 | 0.00 | 30 | 1010.7 |
| 20260509194521 | 84 | 10 | 3.0 | 6.0 | 0.00 | 0.02 | 0.00 | 29 | 1010.7 |
| 20260509193519 | 83 | 265 | 4.0 | 9.0 | 0.00 | 0.02 | 0.00 | 29 | 1010.8 |
| 20260509192518 | 84 | 276 | 2.0 | 5.0 | 0.00 | 0.02 | 0.00 | 32 | 1010.7 |
| 20260509191536 | 83 | 15 | 3.0 | 8.0 | 0.00 | 0.02 | 0.00 | 31 | 1010.7 |
| 20260509190534 | 83 | 317 | 2.0 | 6.0 | 0.00 | 0.02 | 0.00 | 32 | 1010.8 |
| 20260509185532 | 83 | 318 | 3.0 | 7.0 | 0.00 | 0.02 | 0.00 | 33 | 1010.9 |
| 20260509184550 | 83 | 26 | 4.0 | 8.0 | 0.00 | 0.02 | 0.00 | 30 | 1010.9 |
| 20260509183528 | 83 | 254 | 3.0 | 7.0 | 0.00 | 0.02 | 0.00 | 34 | 1010.8 |
| 20260509182526 | 82 | 286 | 3.0 | 6.0 | 0.00 | 0.02 | 0.00 | 33 | 1010.8 |
| 20260509181525 | 82 | 279 | 3.0 | 7.0 | 0.00 | 0.02 | 0.00 | 32 | 1010.8 |
| 20260509180523 | 82 | 17 | 2.0 | 6.0 | 0.00 | 0.02 | 0.00 | 32 | 1010.9 |
| 20260509175521 | 82 | 284 | 4.0 | 8.0 | 0.00 | 0.02 | 0.00 | 32 | 1010.9 |
| 20260509174519 | 82 | 272 | 3.0 | 5.0 | 0.00 | 0.02 | 0.00 | 36 | 1011.1 |
| 20260509173517 | 81 | 337 | 3.0 | 6.0 | 0.00 | 0.02 | 0.00 | 35 | 1011.0 |
| 20260509172516 | 81 | 51 | 3.0 | 6.0 | 0.00 | 0.02 | 0.00 | 34 | 1011.1 |
| 20260509171534 | 81 | 291 | 1.0 | 5.0 | 0.00 | 0.02 | 0.00 | 40 | 1011.3 |
| 20260509170532 | 81 | 274 | 3.0 | 7.0 | 0.00 | 0.02 | 0.00 | 38 | 1011.4 |
| 20260509165530 | 80 | 12 | 3.0 | 6.0 | 0.00 | 0.02 | 0.00 | 37 | 1011.2 |
| 20260509164528 | 79 | 10 | 2.0 | 5.0 | 0.00 | 0.02 | 0.00 | 40 | 1011.2 |
| 20260509163526 | 79 | 9 | 3.0 | 6.0 | 0.00 | 0.02 | 0.00 | 38 | 1011.3 |
| 20260509162544 | 80 | 32 | 3.0 | 9.0 | 0.00 | 0.02 | 0.00 | 41 | 1011.2 |
| 20260509161523 | 79 | 11 | 3.0 | 7.0 | 0.00 | 0.02 | 0.00 | 41 | 1011.2 |
| 20260509160521 | 78 | 36 | 4.0 | 6.0 | 0.00 | 0.02 | 0.00 | 41 | 1011.2 |
| 20260509155519 | 78 | 44 | 3.0 | 8.0 | 0.00 | 0.02 | 0.00 | 42 | 1011.2 |
| 20260509154517 | 78 | 13 | 1.0 | 4.0 | 0.00 | 0.02 | 0.00 | 49 | 1011.2 |
| 20260509153515 | 77 | 283 | 1.0 | 4.0 | 0.00 | 0.02 | 0.00 | 52 | 1011.0 |
| 20260509152553 | 76 | 19 | 2.0 | 6.0 | 0.00 | 0.02 | 0.00 | 53 | 1011.0 |
| 20260509151532 | 74 | 35 | 3.0 | 7.0 | 0.00 | 0.02 | 0.00 | 55 | 1011.1 |
| 20260509150529 | 73 | 33 | 3.0 | 7.0 | 0.00 | 0.02 | 0.00 | 58 | 1011.2 |
| 20260509145528 | 72 | 256 | 1.0 | 4.0 | 0.00 | 0.02 | 0.00 | 62 | 1011.1 |
| 20260509144546 | 71 | 236 | 3.0 | 5.0 | 0.00 | 0.02 | 0.00 | 63 | 1011.1 |
| 20260509143524 | 71 | 7 | 2.0 | 5.0 | 0.00 | 0.02 | 0.00 | 66 | 1011.1 |
| 20260509142522 | 70 | 44 | 2.0 | 4.0 | 0.00 | 0.02 | 0.00 | 67 | 1011.0 |
| 20260509141520 | 70 | 74 | 1.0 | 3.0 | 0.00 | 0.02 | 0.00 | 70 | 1011.0 |
| 20260509140518 | 68 | 87 | 1.0 | 3.0 | 0.00 | 0.02 | 0.00 | 74 | 1010.9 |
| 20260509135517 | 66 | 34 | 0.0 | 2.0 | 0.00 | 0.02 | 0.00 | 81 | 1010.9 |
| 20260509134534 | 64 | 275 | 0.0 | 2.0 | 0.00 | 0.02 | 0.00 | 82 | 1010.9 |
| 20260509133533 | 63 | 230 | 1.0 | 2.0 | 0.00 | 0.02 | 0.00 | 84 | 1011.0 |
| 20260509132551 | 61 | 229 | 1.0 | 4.0 | 0.00 | 0.02 | 0.00 | 87 | 1011.0 |
| 20260509131529 | 60 | 243 | 2.0 | 5.0 | 0.00 | 0.02 | 0.00 | 89 | 1010.6 |
| 20260509130547 | 59 | 241 | 3.0 | 6.0 | 0.00 | 0.02 | 0.00 | 93 | 1010.7 |
| 20260509125525 | 58 | 342 | 2.0 | 4.0 | 0.00 | 0.02 | 0.00 | 98 | 1010.7 |
| 20260509124523 | 57 | 89 | 2.0 | 4.0 | 0.00 | 0.02 | 0.00 | 99 | 1010.8 |
| 20260509123521 | 56 | 78 | 2.0 | 4.0 | 0.00 | 0.02 | 0.00 | 99 | 1010.8 |
| 20260509122520 | 54 | 355 | 1.0 | 3.0 | 0.00 | 0.02 | 0.00 | 99 | 1010.8 |
| 20260509121518 | 53 | 58 | 2.0 | 4.0 | 0.00 | 0.02 | 0.00 | 98 | 1010.5 |
| 20260509120516 | 53 | 59 | 3.0 | 5.0 | 0.00 | 0.02 | 0.00 | 98 | 1010.5 |
| 20260509115534 | 52 | 52 | 3.0 | 5.0 | 0.00 | 0.02 | 0.00 | 98 | 1010.2 |
| 20260509114532 | 52 | 64 | 2.0 | 4.0 | 0.00 | 0.02 | 0.00 | 98 | 1010.1 |
| 20260509113531 | 51 | 70 | 2.0 | 4.0 | 0.00 | 0.02 | 0.00 | 98 | 1010.0 |
| 20260509112528 | 51 | 78 | 2.0 | 4.0 | 0.00 | 0.02 | 0.00 | 98 | 1010.0 |
| 20260509111527 | 51 | 71 | 2.0 | 4.0 | 0.00 | 0.02 | 0.00 | 98 | 1009.9 |
| 20260509110525 | 50 | 52 | 3.0 | 4.0 | 0.00 | 0.02 | 0.00 | 98 | 1009.9 |
| 20260509105523 | 51 | 75 | 1.0 | 3.0 | 0.00 | 0.02 | 0.00 | 98 | 1009.9 |
| 20260509104521 | 50 | 49 | 3.0 | 5.0 | 0.00 | 0.02 | 0.00 | 97 | 1009.9 |
| 20260509103519 | 51 | 85 | 2.0 | 4.0 | 0.00 | 0.02 | 0.00 | 97 | 1009.9 |
| 20260509102518 | 51 | 98 | 2.0 | 4.0 | 0.00 | 0.02 | 0.00 | 97 | 1009.9 |
| 20260509101536 | 51 | 86 | 2.0 | 3.0 | 0.00 | 0.02 | 0.00 | 97 | 1009.8 |
| 20260509100534 | 51 | 46 | 3.0 | 5.0 | 0.00 | 0.02 | 0.00 | 97 | 1009.8 |
| 20260509095552 | 52 | 69 | 2.0 | 4.0 | 0.00 | 0.02 | 0.00 | 97 | 1009.8 |
| 20260509094530 | 52 | 54 | 2.0 | 4.0 | 0.00 | 0.02 | 0.00 | 97 | 1010.0 |
| 20260509093528 | 52 | 113 | 2.0 | 4.0 | 0.00 | 0.02 | 0.00 | 97 | 1010.0 |
| 20260509092526 | 52 | 138 | 1.0 | 4.0 | 0.00 | 0.02 | 0.00 | 97 | 1010.0 |
| 20260509091524 | 52 | 24 | 2.0 | 5.0 | 0.00 | 0.02 | 0.00 | 96 | 1010.0 |
| 20260509090523 | 53 | 81 | 2.0 | 5.0 | 0.00 | 0.02 | 0.00 | 97 | 1009.9 |
| 20260509085521 | 53 | 70 | 0.0 | 1.0 | 0.00 | 0.02 | 0.00 | 97 | 1009.9 |
| 20260509084539 | 53 | 69 | 1.0 | 2.0 | 0.00 | 0.02 | 0.00 | 97 | 1009.8 |
| 20260509083517 | 53 | 58 | 2.0 | 3.0 | 0.00 | 0.02 | 0.00 | 97 | 1009.8 |
| 20260509082515 | 54 | 59 | 2.0 | 3.0 | 0.00 | 0.02 | 0.00 | 97 | 1009.7 |
| 20260509081533 | 54 | 59 | 2.0 | 3.0 | 0.00 | 0.02 | 0.00 | 97 | 1009.6 |
| 20260509080551 | 54 | 68 | 1.0 | 3.0 | 0.00 | 0.02 | 0.00 | 97 | 1009.7 |
| 20260509075530 | 54 | 58 | 2.0 | 3.0 | 0.00 | 0.02 | 0.00 | 97 | 1009.8 |
| 20260509074528 | 54 | 60 | 2.0 | 2.0 | 0.00 | 0.02 | 0.00 | 96 | 1009.8 |
| 20260509073526 | 53 | 57 | 2.0 | 3.0 | 0.00 | 0.02 | 0.00 | 96 | 1009.9 |
| 20260509072524 | 54 | 77 | 0.0 | 2.0 | 0.00 | 0.02 | 0.00 | 96 | 1009.8 |
| 20260509071522 | 54 | 62 | 1.0 | 2.0 | 0.00 | 0.02 | 0.00 | 96 | 1009.8 |
| 20260509070520 | 54 | 60 | 2.0 | 2.0 | 0.00 | 0.02 | 0.00 | 95 | 1009.9 |
| 20260509065518 | 55 | 70 | 2.0 | 2.0 | 0.00 | 0.02 | 0.00 | 95 | 1009.8 |
| 20260509064517 | 55 | 69 | 1.0 | 2.0 | 0.00 | 0.02 | 0.00 | 95 | 1009.9 |
| 20260509063555 | 55 | 0.0 | 1.0 | 0.00 | 0.02 | 0.00 | 95 | 1009.8 | |
| 20260509062533 | 55 | 77 | 1.0 | 2.0 | 0.00 | 0.02 | 0.00 | 95 | 1009.9 |
| 20260509061551 | 56 | 70 | 0.0 | 2.0 | 0.00 | 0.02 | 0.00 | 94 | 1010.0 |
| 20260509060549 | 56 | 60 | 2.0 | 3.0 | 0.00 | 0.02 | 0.00 | 94 | 1010.1 |
| 20260509055527 | 56 | 58 | 2.0 | 2.0 | 0.00 | 0.02 | 0.00 | 94 | 1010.1 |
| 20260509054525 | 57 | 52 | 2.0 | 3.0 | 0.00 | 0.02 | 0.00 | 93 | 1010.1 |
| 20260509053523 | 57 | 54 | 2.0 | 2.0 | 0.00 | 0.02 | 0.00 | 92 | 1010.2 |
| 20260509052522 | 57 | 59 | 1.0 | 2.0 | 0.00 | 0.02 | 0.00 | 91 | 1010.2 |
| 20260509051520 | 58 | 55 | 2.0 | 3.0 | 0.00 | 0.02 | 0.00 | 90 | 1010.1 |
| 20260509050538 | 58 | 61 | 1.0 | 2.0 | 0.00 | 0.02 | 0.00 | 89 | 1009.9 |
| 20260509045516 | 59 | 72 | 1.0 | 2.0 | 0.00 | 0.02 | 0.02 | 88 | 1009.9 |
| 20260509044534 | 59 | 49 | 1.0 | 2.0 | 0.00 | 0.02 | 0.02 | 88 | 1009.8 |
| 20260509043532 | 59 | 61 | 1.0 | 2.0 | 0.00 | 0.02 | 0.02 | 87 | 1009.9 |
| 20260509042531 | 60 | 0.0 | 1.0 | 0.00 | 0.02 | 0.02 | 85 | 1009.9 | |
| 20260509041529 | 61 | 51 | 1.0 | 2.0 | 0.00 | 0.02 | 0.02 | 83 | 1009.8 |
| 20260509040527 | 62 | 59 | 1.0 | 2.0 | 0.00 | 0.02 | 0.02 | 81 | 1009.8 |
| 20260509035525 | 63 | 64 | 2.0 | 3.0 | 0.00 | 0.02 | 0.02 | 80 | 1009.7 |
| 20260509034523 | 63 | 61 | 4.0 | 7.0 | 0.00 | 0.02 | 0.02 | 80 | 1009.9 |
| 20260509033521 | 63 | 69 | 4.0 | 8.0 | 0.00 | 0.02 | 0.02 | 79 | 1010.2 |
| 20260509032519 | 64 | 57 | 4.0 | 7.0 | 0.00 | 0.02 | 0.02 | 76 | 1009.9 |
| 20260509031538 | 65 | 65 | 4.0 | 7.0 | 0.00 | 0.02 | 0.02 | 72 | 1009.9 |
| 20260509030516 | 65 | 53 | 3.0 | 6.0 | 0.00 | 0.02 | 0.02 | 69 | 1009.7 |
| 20260509025534 | 65 | 37 | 3.0 | 7.0 | 0.00 | 0.02 | 0.02 | 68 | 1009.4 |
| 20260509024532 | 66 | 42 | 3.0 | 6.0 | 0.00 | 0.02 | 0.02 | 66 | 1009.1 |
| 20260509023530 | 66 | 34 | 4.0 | 12.0 | 0.00 | 0.02 | 0.02 | 63 | 1008.8 |
| 20260509022528 | 66 | 57 | 2.0 | 6.0 | 0.00 | 0.02 | 0.02 | 62 | 1008.4 |
| 20260509021526 | 66 | 30 | 4.0 | 6.0 | 0.00 | 0.02 | 0.02 | 60 | 1007.9 |
| 20260509020525 | 66 | 232 | 3.0 | 7.0 | 0.00 | 0.02 | 0.02 | 60 | 1007.3 |
| 20260509015523 | 64 | 228 | 2.0 | 8.0 | 0.00 | 0.02 | 0.02 | 65 | 1007.2 |
| 20260509014521 | 64 | 237 | 1.0 | 3.0 | 0.00 | 0.02 | 0.02 | 67 | 1007.1 |
| 20260509013519 | 64 | 257 | 1.0 | 3.0 | 0.00 | 0.02 | 0.02 | 67 | 1006.9 |
| 20260509012517 | 64 | 168 | 1.0 | 2.0 | 0.00 | 0.02 | 0.02 | 68 | 1006.7 |
| 20260509011515 | 64 | 158 | 1.0 | 4.0 | 0.00 | 0.02 | 0.02 | 69 | 1006.5 |
| 20260509010533 | 64 | 244 | 0.0 | 2.0 | 0.00 | 0.02 | 0.02 | 69 | 1006.8 |
| 20260509005532 | 64 | 130 | 1.0 | 2.0 | 0.00 | 0.02 | 0.02 | 68 | 1007.1 |